Regional Weather Roundup
Issued by NWS

Home | Current Version | Previous Version | Graphics & Text | Print | Product List | Glossary On
Versions: 1 2 3 4 5 6 7 8 9 10 11 12 13 14 15 16 17 18 19 20 21 22 23 24 25 26 27 28 29 30 31 32 33 34 35 36 37 38 39 40 41 42 43 44 45 46 47 48 49 50
000
ASUS43 KIND 301409
RWRIN

WEATHER ROUNDUP FOR INDIANA
NATIONAL WEATHER SERVICE INDIANAPOLIS IN
1000 AM EDT SAT APR 30 2016

NOTE: "FAIR" INDICATES FEW OR NO CLOUDS BELOW 12,000 FEET WITH NO
SIGNIFICANT WEATHER AND/OR OBSTRUCTIONS TO VISIBILITY.

* - STATION DOES NOT REPORT WEATHER SUCH AS PRECIPITATION OR FOG.

+ - STATION NOT QUALITY CONTROLLED BY THE NATIONAL WEATHER SERVICE.
    USE DATA WITH CAUTION...ESPECIALLY DEWPOINT AND RELATIVE
    HUMIDITY OBSERVATIONS.

INZ001>003-010>013-019-020-301500-
NORTHWEST INDIANA

CITY           SKY/WX    TMP DP  RH WIND       PRES   REMARKS
GARY /AIRPORT/ CLOUDY    50  46  87 E12       30.05S
KNOX *+        CLOUDY    46  34  61 E13       30.05F
LA PORTE +     CLOUDY    49  37  61 E14G20    30.06F
MICHIGAN CITY+ CLOUDY    46  36  66 E9        30.06F
MONTICELLO +   LGT RAIN  47  43  84 E7        30.02S
RENSSELAER +   RAIN      46  45  93 E14G20    30.03S
VALPARAISO     CLOUDY    47  40  76 E12       30.05F

$$

LMZ046-743>745-301500-
SOUTHERN LAKE MICHIGAN

STATION/POSITION TIME  TEMP    WIND        PRES    WAVE
                       AIR SEA DIR/SP/G            HT
                 (UTC) (F)     (DEG/KT/KT) (MB)    (FT)
BURNS HARBOR     1304   48     100/ 12/ 17 1018.3F
MICHIGAN CITY    1300   47      70/  9/ 11   N/A

$$

INZ004-005-014>016-021>024-301500-
NORTH CENTRAL INDIANA

CITY           SKY/WX    TMP DP  RH WIND       PRES   REMARKS
ELKHART        PTSUNNY   48  41  76 E15       30.09F
GOSHEN         CLOUDY    47  35  63 E16       30.08F
LOGANSPORT +   LGT RAIN  46  43  87 E10G16    30.04S
PERU/GRISSOM   LGT RAIN  47  44  88 E14       30.01F
ROCHESTER +    CLOUDY    48  43  81 E12       30.06F
SOUTH BEND     CLOUDY    47  34  60 SE15      30.08F
WARSAW +       CLOUDY    45  36  70 E15G21    30.07F

$$

INZ006>009-017-018-025>027-301500-
NORTHEAST INDIANA

CITY           SKY/WX    TMP DP  RH WIND       PRES   REMARKS
ANGOLA *+      SUNNY     48  37  66 SE12      30.10F
AUBURN +       PTSUNNY   46  34  61 E12G20    30.09F
FORT WAYNE     CLOUDY    46  40  79 E14       30.08F
HUNTINGTON +   CLOUDY   N/A N/A N/A E10       30.07S

$$

INZ028-029-035-036-043>045-051>053-301500-
WEST CENTRAL INDIANA

CITY           SKY/WX    TMP DP  RH WIND       PRES   REMARKS
CRAWFORDSVL +  RAIN      48  48 100 E7        30.00R
GREENCASTLE +  LGT RAIN  50  50 100 SE8       30.00S
LAFAYETTE      LGT RAIN  49  46  90 E10       30.01R FOG
TERRE HAUTE    LGT RAIN  55  52  89 E10       29.96F FOG

$$

INZ030>032-037>040-046>048-054>057-064-065-301500-
CENTRAL INDIANA

CITY           SKY/WX    TMP DP  RH WIND       PRES   REMARKS
ANDERSON       LGT RAIN  50  45  81 E12       30.03F
CP ATTERBURY + RAIN      52  50  93 CALM      30.03R
COLUMBUS       LGT RAIN  54  54 100 CALM      30.03R FOG
FISHERS *+     CLOUDY    48  48 100 E3        30.02R
FRANKFORT +    RAIN      49  49  99 E6        30.03R
GREENWOOD *+   CLOUDY    50  48  93 E7        30.02
INDIANAPOLIS   LGT RAIN  50  48  93 E9        30.00R FOG
-EAGLE CREEK   LGT RAIN  50  48  93 E8        30.01R FOG
KOKOMO *+      CLOUDY    48  41  76 E14       30.02F
MARION +       CLOUDY    47  42  84 E13       30.04S
SHELBYVILLE    RAIN      53  47  79 SE7       30.02R
ZIONSVILLE +   RAIN      48  46  91 E8        30.02S

$$

INZ033-034-041-042-049-050-058-059-301500-
EAST CENTRAL INDIANA

CITY           SKY/WX    TMP DP  RH WIND       PRES   REMARKS
MUNCIE         LGT RAIN  50  43  77 E12       30.04S

$$

INZ060-061-067>069-081>083-085>088-301500-
SOUTHWEST INDIANA

CITY           SKY/WX    TMP DP  RH WIND       PRES   REMARKS
EVANSVILLE     LGT RAIN  59  56  89 E12       29.90F
HUNTINGBURG *+ CLOUDY    57  54  88 E7        29.93F
WASHINGTON +   LGT RAIN  57  57 100 E10       29.95S

$$

INZ062-063-066-070>080-084-089>092-301500-
SOUTH CENTRAL AND SOUTHEAST INDIANA

CITY           SKY/WX    TMP DP  RH WIND       PRES   REMARKS
BEDFORD +      LGT RAIN  54  54 100 E8        29.96F
BLOOMINGTON    LGT RAIN  54  52  93 E9        29.98S FOG
MADISON *+     CLOUDY    54  50  87 CALM      30.05R
NORTH VERNON + LGT RAIN N/A N/A N/A CALM      30.04R
SEYMOUR +      RAIN      57  54  88 CALM      30.02R

$$




USA.gov is the U.S. government's official web portal to all federal, state and local government web resources and services.